DW9439 Weather Reports


Display with metric or nautical units.
time (UTC)temp
F
wind
direction
speed
MPH
gust
MPH
rain 1hr
in
rain 24hr
in
rain mn
in
humidity
%
barometer
mb
20260903152224 81 263 7.0 11.0 0.00 0.00 0.00 46 1014.0
20260903151923 81 263 7.0 11.0 0.00 0.00 0.00 47 1014.1
20260903151144 80 257 6.0 10.0 0.00 0.00 0.00 48 1014.1
20260903150845 80 256 6.0 11.0 0.00 0.00 0.00 48 1014.2
20260903150533 79 256 6.0 11.0 0.00 0.00 0.00 49 1014.1
20260903145820 78 254 7.0 11.0 0.00 0.00 0.00 49 1014.1
20260903145517 78 254 7.0 11.0 0.00 0.00 0.00 50 1014.1
20260903145204 78 254 7.0 11.0 0.00 0.00 0.00 50 1014.0
20260903144904 78 254 6.0 11.0 0.00 0.00 0.00 51 1014.0
20260903144551 77 251 6.0 12.0 0.00 0.00 0.00 51 1014.0
20260903144246 77 251 6.0 12.0 0.00 0.00 0.00 52 1014.0
20260903143945 77 251 7.0 12.0 0.00 0.00 0.00 52 1014.1
20260903143645 77 250 7.0 12.0 0.00 0.00 0.00 51 1014.0
20260903143336 76 250 7.0 12.0 0.00 0.00 0.00 51 1014.1
20260903143029 76 250 7.0 12.0 0.00 0.00 0.00 52 1014.0
20260903142720 76 244 7.0 11.0 0.00 0.00 0.00 53 1014.1
20260903142408 76 243 7.0 11.0 0.00 0.00 0.00 52 1014.1
20260903142104 76 242 7.0 11.0 0.00 0.00 0.00 53 1014.0
20260903141759 75 240 7.0 11.0 0.00 0.00 0.00 54 1014.0
20260903141449 75 240 7.0 11.0 0.00 0.00 0.00 55 1014.1
20260903141148 75 240 7.0 11.0 0.00 0.00 0.00 54 1014.1
20260903140844 74 239 7.0 11.0 0.00 0.00 0.00 56 1014.1
20260903140120 73 237 7.0 10.0 0.00 0.00 0.00 60 1014.2
20260903135820 72 237 7.0 13.0 0.00 0.00 0.00 62 1014.2
20260903135508 72 237 7.0 13.0 0.00 0.00 0.00 63 1014.2
20260903135211 71 237 7.0 13.0 0.00 0.00 0.00 64 1014.1
20260903134911 71 236 8.0 13.0 0.00 0.00 0.00 65 1014.1
20260903134614 70 236 8.0 13.0 0.00 0.00 0.00 66 1014.0
20260903134315 70 236 8.0 13.0 0.00 0.00 0.00 67 1014.1
20260903134007 69 234 8.0 13.0 0.00 0.00 0.00 68 1014.1
20260903133238 68 223 8.0 12.0 0.00 0.00 0.00 71 1014.0
20260903132930 68 222 7.0 12.0 0.00 0.00 0.00 72 1014.1
20260903132202 67 215 7.0 10.0 0.00 0.00 0.00 74 1014.1
20260903131855 67 214 7.0 10.0 0.00 0.00 0.00 74 1014.0
20260903131550 67 213 7.0 10.0 0.00 0.00 0.00 75 1014.0
20260903130828 66 213 7.0 10.0 0.00 0.00 0.00 76 1013.7
20260903130522 66 213 7.0 10.0 0.00 0.00 0.00 77 1013.6
20260903130219 66 213 7.0 9.0 0.00 0.00 0.00 77 1013.6
20260903125911 66 213 7.0 9.0 0.00 0.00 0.00 77 1013.7
20260903125615 66 213 7.0 9.0 0.00 0.00 0.00 77 1013.7
20260903125313 66 213 6.0 12.0 0.00 0.00 0.00 77 1013.7
20260903125015 66 213 7.0 12.0 0.00 0.00 0.00 76 1013.5
20260903124708 66 213 7.0 12.0 0.00 0.00 0.00 76 1013.5
20260903124408 66 213 8.0 12.0 0.00 0.00 0.00 76 1013.4
20260903123643 66 213 7.0 12.0 0.00 0.00 0.00 76 1013.3
20260903123347 66 213 7.0 11.0 0.00 0.00 0.00 76 1013.3
20260903123050 66 213 7.0 13.0 0.00 0.00 0.00 76 1013.4
20260903122750 66 213 7.0 13.0 0.00 0.00 0.00 75 1013.4
20260903122437 66 213 8.0 13.0 0.00 0.00 0.00 75 1013.3
20260903122140 66 212 8.0 13.0 0.00 0.00 0.00 75 1013.1
20260903121419 66 212 8.0 13.0 0.00 0.00 0.00 74 1013.2
20260903121117 67 212 8.0 13.0 0.00 0.00 0.00 74 1013.2
20260903120818 67 211 8.0 12.0 0.00 0.00 0.00 74 1013.1
20260903120522 67 211 9.0 12.0 0.00 0.00 0.00 74 1013.1
20260903120217 67 211 9.0 12.0 0.00 0.00 0.00 73 1013.1
20260903115908 67 211 9.0 12.0 0.00 0.00 0.00 73 1013.1
20260903115154 67 209 9.0 12.0 0.00 0.00 0.00 74 1013.1
20260903114842 67 207 8.0 12.0 0.00 0.00 0.00 74 1013.0
20260903114535 67 207 8.0 11.0 0.00 0.00 0.00 73 1013.0
20260903113807 67 207 8.0 11.0 0.00 0.00 0.00 72 1012.9
20260903113506 67 207 8.0 11.0 0.00 0.00 0.00 72 1013.0
20260903112732 68 207 8.0 10.0 0.00 0.00 0.00 71 1012.8
20260903110651 69 206 9.0 14.0 0.00 0.00 0.00 69 1012.8
20260903110348 69 205 9.0 14.0 0.00 0.00 0.00 69 1013.4
20260903110034 69 205 10.0 14.0 0.00 0.00 0.00 69 1012.8
20260903105734 69 205 10.0 14.0 0.00 0.00 0.00 69 1012.8
20260903105421 69 204 10.0 14.0 0.00 0.00 0.00 69 1012.8
20260903105122 69 204 10.0 14.0 0.00 0.00 0.00 69 1013.0
20260903104822 69 202 10.0 14.0 0.00 0.00 0.00 69 1012.9
20260903103655 69 200 9.0 12.0 0.00 0.00 0.00 69 1012.8
20260903103357 69 198 10.0 14.0 0.00 0.00 0.00 69 1012.9
20260903103050 69 198 10.0 14.0 0.00 0.00 0.00 69 1012.8
20260903102754 69 198 10.0 14.0 0.00 0.00 0.00 69 1012.8
20260903102442 69 198 10.0 14.0 0.00 0.00 0.00 69 1012.8
20260903102132 69 198 10.0 14.0 0.00 0.00 0.00 68 1012.8
20260903101827 69 198 10.0 14.0 0.00 0.00 0.00 68 1012.8
20260903101514 70 198 10.0 13.0 0.00 0.00 0.00 68 1012.7
20260903100739 70 200 10.0 13.0 0.00 0.00 0.00 67 1012.9
20260903100024 71 198 10.0 14.0 0.00 0.00 0.00 66 1012.8
20260903094844 71 200 11.0 14.0 0.00 0.00 0.00 66 1012.9
20260903094120 71 198 10.0 13.0 0.00 0.00 0.00 66 1012.8
20260903093404 71 196 10.0 15.0 0.00 0.00 0.00 66 1012.9
20260903093058 71 196 10.0 15.0 0.00 0.00 0.00 66 1012.8
20260903092750 71 195 10.0 15.0 0.00 0.00 0.00 66 1012.9
20260903092444 71 194 10.0 15.0 0.00 0.00 0.00 65 1012.9
20260903091731 72 190 11.0 15.0 0.00 0.00 0.00 65 1012.9
20260903091433 72 192 11.0 18.0 0.00 0.00 0.00 65 1013.0
20260903090701 72 194 11.0 18.0 0.00 0.00 0.00 65 1013.1
20260903090400 72 192 12.0 18.0 0.00 0.00 0.00 65 1013.0
20260903090055 72 193 12.0 18.0 0.00 0.00 0.00 64 1013.0
20260903085747 72 191 12.0 18.0 0.00 0.00 0.00 64 1012.9
20260903085021 72 188 12.0 17.0 0.00 0.00 0.00 64 1012.9
20260903084717 72 188 12.0 17.0 0.00 0.00 0.00 65 1012.9
20260903084421 72 188 12.0 17.0 0.00 0.00 0.00 65 1012.9
20260903084113 72 182 11.0 17.0 0.00 0.00 0.00 65 1012.8
20260903083813 72 184 10.0 17.0 0.00 0.00 0.00 65 1012.9
20260903083502 72 191 7.0 14.0 0.00 0.00 0.00 65 1013.1
20260903083200 72 194 6.0 13.0 0.00 0.00 0.00 65 1013.1
20260903082901 72 194 6.0 10.0 0.00 0.00 0.00 64 1013.3
20260903082138 73 194 7.0 13.0 0.00 0.00 0.00 64 1013.4
20260903081839 73 194 8.0 13.0 0.00 0.00 0.00 64 1013.5
20260903081525 73 194 9.0 13.0 0.00 0.00 0.00 64 1013.5
20260903081223 73 193 10.0 15.0 0.00 0.00 0.00 64 1013.4
20260903080454 73 188 11.0 15.0 0.00 0.00 0.00 64 1013.2
20260903075726 73 186 11.0 19.0 0.00 0.00 0.00 63 1013.2
20260903075008 74 187 12.0 19.0 0.00 0.00 0.00 63 1013.2
20260903074704 74 188 12.0 19.0 0.00 0.00 0.00 63 1013.2
20260903074407 74 190 12.0 19.0 0.00 0.00 0.00 63 1013.3
20260903074100 74 186 11.0 18.0 0.00 0.00 0.00 63 1013.3
20260903073803 74 184 10.0 18.0 0.00 0.00 0.00 63 1013.3
20260903073452 74 185 10.0 18.0 0.00 0.00 0.00 63 1013.4
20260903072735 74 184 10.0 15.0 0.00 0.00 0.00 63 1013.3
20260903072431 74 184 10.0 15.0 0.00 0.00 0.00 63 1013.3
20260903072129 74 185 10.0 17.0 0.00 0.00 0.00 63 1013.3
20260903071824 74 188 10.0 17.0 0.00 0.00 0.00 63 1013.3
20260903071101 74 186 10.0 17.0 0.00 0.00 0.00 63 1013.3
20260903070751 74 185 10.0 17.0 0.00 0.00 0.00 63 1013.3
20260903070024 74 187 9.0 13.0 0.00 0.00 0.00 63 1013.3
20260903065721 74 188 9.0 13.0 0.00 0.00 0.00 63 1013.4
20260903065418 74 188 9.0 13.0 0.00 0.00 0.00 63 1013.4
20260903065113 74 188 9.0 13.0 0.00 0.00 0.00 63 1013.4
20260903064800 74 188 9.0 13.0 0.00 0.00 0.00 62 1013.5
20260903064458 74 189 8.0 13.0 0.00 0.00 0.00 62 1013.5
20260903064148 74 190 9.0 13.0 0.00 0.00 0.00 62 1013.5
20260903063849 74 192 9.0 13.0 0.00 0.00 0.00 62 1013.5
20260903063120 74 193 8.0 11.0 0.00 0.00 0.00 61 1013.6
20260903062820 74 193 8.0 12.0 0.00 0.00 0.00 61 1013.5
20260903062506 74 194 8.0 12.0 0.00 0.00 0.00 61 1013.5
20260903062201 75 194 8.0 12.0 0.00 0.00 0.00 60 1013.6
20260903061852 75 194 9.0 12.0 0.00 0.00 0.00 60 1013.5
20260903061550 75 196 9.0 12.0 0.00 0.00 0.00 60 1013.6
20260903061252 75 196 9.0 12.0 0.00 0.00 0.00 60 1013.6
20260903060956 75 196 9.0 13.0 0.00 0.00 0.00 59 1013.7
20260903060650 75 197 9.0 13.0 0.00 0.00 0.00 59 1013.6
20260903060351 75 198 9.0 13.0 0.00 0.00 0.00 59 1013.6
20260903060039 76 198 9.0 13.0 0.00 0.00 0.00 59 1013.6
20260903055728 76 197 9.0 13.0 0.00 0.00 0.00 59 1013.5
20260903055009 76 198 10.0 13.0 0.00 0.00 0.00 58 1013.6
20260903054657 76 198 10.0 13.0 0.00 0.00 0.00 58 1013.6
20260903054350 76 198 10.0 13.0 0.00 0.00 0.00 58 1013.6
20260903054050 76 198 9.0 13.0 0.00 0.00 0.00 57 1013.7
20260903053742 77 198 9.0 12.0 0.00 0.00 0.00 57 1013.6
20260903053020 77 198 9.0 12.0 0.00 0.00 0.00 57 1013.6
20260903052713 77 198 9.0 12.0 0.00 0.00 0.00 56 1013.6
20260903052405 78 198 9.0 12.0 0.00 0.00 0.00 56 1013.7
20260903052053 78 198 10.0 17.0 0.00 0.00 0.00 56 1013.7
20260903051752 78 198 10.0 17.0 0.00 0.00 0.00 55 1013.9
20260903051447 78 198 11.0 17.0 0.00 0.00 0.00 55 1013.8
20260903051136 78 198 12.0 17.0 0.00 0.00 0.00 55 1013.8
20260903050829 78 200 12.0 17.0 0.00 0.00 0.00 55 1013.8
20260903050520 78 200 11.0 17.0 0.00 0.00 0.00 55 1013.9
20260903050211 78 202 11.0 15.0 0.00 0.00 0.00 55 1013.7
20260903045908 78 202 10.0 15.0 0.00 0.00 0.00 56 1013.8
20260903045156 77 201 10.0 13.0 0.00 0.00 0.00 56 1013.8
20260903044842 77 201 11.0 15.0 0.00 0.00 0.00 56 1013.8
20260903044539 77 201 11.0 15.0 0.00 0.00 0.00 56 1013.9
20260903044237 77 201 10.0 15.0 0.00 0.00 0.00 56 1014.0
20260903043939 77 201 11.0 15.0 0.00 0.00 0.00 56 1013.9
20260903043630 77 201 11.0 15.0 0.00 0.00 0.00 57 1014.0
20260903043322 77 202 11.0 15.0 0.00 0.00 0.00 57 1014.0
20260903043011 76 201 11.0 14.0 0.00 0.00 0.00 57 1014.0
20260903041838 76 203 8.0 14.0 0.00 0.00 0.00 57 1014.1
20260903041540 76 204 7.0 11.0 0.00 0.00 0.00 57 1014.1
20260903041243 75 204 7.0 10.0 0.00 0.00 0.00 57 1014.1
20260903040521 75 204 7.0 10.0 0.00 0.00 0.00 57 1014.1
20260903040210 74 204 7.0 10.0 0.00 0.00 0.00 56 1014.1
20260903035909 74 204 6.0 9.0 0.00 0.00 0.00 56 1014.2
20260903035557 74 204 5.0 8.0 0.00 0.00 0.00 56 1014.1
20260903034830 74 204 4.0 6.0 0.00 0.00 0.00 54 1014.1
20260903034523 74 204 4.0 4.0 0.00 0.00 0.00 52 1014.1
20260903034222 74 204 4.0 4.0 0.00 0.00 0.00 51 1014.2
20260903033925 75 204 4.0 4.0 0.00 0.00 0.00 51 1014.2
20260903033617 75 204 4.0 4.0 0.00 0.00 0.00 50 1014.2
20260903033311 75 204 4.0 6.0 0.00 0.00 0.00 49 1014.3
20260903032536 76 204 4.0 6.0 0.00 0.00 0.00 48 1014.3
20260903031800 77 204 5.0 8.0 0.00 0.00 0.00 47 1014.2
20260903031457 78 204 6.0 8.0 0.00 0.00 0.00 46 1014.2
20260903030740 78 204 6.0 8.0 0.00 0.00 0.00 46 1014.2
20260903030429 78 204 5.0 7.0 0.00 0.00 0.00 45 1014.2
20260903025707 79 204 4.0 6.0 0.00 0.00 0.00 42 1014.2
20260903025409 79 204 5.0 6.0 0.00 0.00 0.00 41 1014.2
20260903025101 80 204 4.0 6.0 0.00 0.00 0.00 41 1014.2
20260903024804 80 204 5.0 6.0 0.00 0.00 0.00 40 1014.2
20260903024505 80 204 5.0 6.0 0.00 0.00 0.00 40 1014.2
20260903024209 81 204 6.0 14.0 0.00 0.00 0.00 39 1014.2
20260903023858 81 204 6.0 14.0 0.00 0.00 0.00 38 1014.2
20260903023136 81 204 8.0 14.0 0.00 0.00 0.00 37 1014.1
20260903022834 80 204 7.0 14.0 0.00 0.00 0.00 39 1014.1
20260903022119 78 225 5.0 8.0 0.00 0.00 0.00 39 1014.0
20260903021817 78 225 5.0 6.0 0.00 0.00 0.00 38 1013.8
20260903021515 79 225 5.0 6.0 0.00 0.00 0.00 38 1013.7
20260903021209 79 225 5.0 6.0 0.00 0.00 0.00 37 1013.6
20260903020859 79 225 4.0 6.0 0.00 0.00 0.00 37 1013.6
20260903020138 80 225 4.0 5.0 0.00 0.00 0.00 36 1013.6
20260903015830 80 225 4.0 5.0 0.00 0.00 0.00 35 1013.5
20260903015521 81 225 4.0 5.0 0.00 0.00 0.00 35 1013.5
20260903015218 81 225 4.0 5.0 0.00 0.00 0.00 34 1013.5
20260903014913 81 225 4.0 5.0 0.00 0.00 0.00 34 1013.4
20260903014146 82 225 3.0 5.0 0.00 0.00 0.00 33 1013.4
20260903013838 83 225 4.0 5.0 0.00 0.00 0.00 33 1013.3
20260903013106 85 225 2.0 5.0 0.00 0.00 0.00 31 1013.3
20260903012754 86 225 1.0 4.0 0.00 0.00 0.00 29 1013.3
20260903012019 87 225 0.0 2.0 0.00 0.00 0.00 28 1013.2
20260903011717 87 225 0.0 2.0 0.00 0.00 0.00 28 1013.2
20260903011409 88 225 0.0 1.0 0.00 0.00 0.00 27 1013.2
20260903011110 89 225 0.0 0.0 0.00 0.00 0.00 27 1013.2
20260903010756 89 225 0.0 0.0 0.00 0.00 0.00 26 1013.2
20260903010459 90 225 1.0 0.0 0.00 0.00 0.00 26 1013.1
20260903004848 92 225 2.0 5.0 0.00 0.00 0.00 23 1013.3
20260903004537 92 225 3.0 5.0 0.00 0.00 0.00 23 1013.3
20260903004241 93 225 4.0 8.0 0.00 0.00 0.00 22 1013.5
20260903003934 93 225 4.0 8.0 0.00 0.00 0.00 22 1013.4
20260903002749 94 225 5.0 13.0 0.00 0.00 0.00 20 1013.5
20260903002447 95 225 6.0 13.0 0.00 0.00 0.00 19 1013.5
20260903002137 95 225 7.0 13.0 0.00 0.00 0.00 19 1013.5
20260903001832 95 225 7.0 13.0 0.00 0.00 0.00 19 1013.6
20260903001522 95 225 7.0 13.0 0.00 0.00 0.00 18 1013.6
20260903001225 95 236 7.0 12.0 0.00 0.00 0.00 18 1013.6
20260903000921 95 238 7.0 12.0 0.00 0.00 0.00 18 1013.6
20260903000616 95 240 7.0 12.0 0.00 0.00 0.00 18 1013.5
20260903000318 96 240 7.0 11.0 0.00 0.00 0.00 18 1013.6
20260903000003 96 240 7.0 11.0 0.00 0.00 0.00 18 1013.5
20260902235701 96 238 7.0 14.0 0.00 0.00 0.00 17 1013.5
20260902234524 96 221 9.0 14.0 0.00 0.00 0.00 19 1013.4
20260902234226 97 212 10.0 14.0 0.00 0.00 0.00 19 1013.3
20260902233913 97 211 10.0 14.0 0.00 0.00 0.00 19 1013.4
20260902233141 97 230 9.0 15.0 0.00 0.00 0.00 19 1013.4
20260902232842 97 238 10.0 15.0 0.00 0.00 0.00 18 1013.4
20260902232126 97 218 11.0 19.0 0.00 0.00 0.00 19 1013.3
20260902231824 97 221 11.0 19.0 0.00 0.00 0.00 20 1013.5
20260902231519 97 211 11.0 24.0 0.00 0.00 0.00 20 1013.4
20260902231208 97 215 10.0 24.0 0.00 0.00 0.00 20 1013.3
20260902230446 97 252 13.0 24.0 0.00 0.00 0.00 19 1013.4
20260902230143 97 241 13.0 24.0 0.00 0.00 0.00 19 1013.4
20260902225830 97 226 13.0 24.0 0.00 0.00 0.00 19 1013.4
20260902225518 97 234 12.0 19.0 0.00 0.00 0.00 21 1013.4
20260902225217 97 235 12.0 19.0 0.00 0.00 0.00 22 1013.4
20260902224915 97 219 12.0 19.0 0.00 0.00 0.00 22 1013.5
20260902224614 98 243 11.0 19.0 0.00 0.00 0.00 21 1013.4
20260902224306 97 227 13.0 28.0 0.00 0.00 0.00 21 1013.5
20260902224000 97 227 14.0 28.0 0.00 0.00 0.00 20 1013.5
20260902223252 97 211 12.0 29.0 0.00 0.00 0.00 19 1013.5
20260902222947 97 221 11.0 29.0 0.00 0.00 0.00 21 1013.5
20260902222645 97 240 12.0 29.0 0.00 0.00 0.00 22 1013.5
20260902222330 97 232 13.0 29.0 0.00 0.00 0.00 21 1013.6
20260902222024 97 244 12.0 29.0 0.00 0.00 0.00 20 1013.5
20260902221715 97 236 12.0 29.0 0.00 0.00 0.00 20 1013.7
20260902221417 97 205 11.0 21.0 0.00 0.00 0.00 21 1013.6
20260902221106 97 228 11.0 21.0 0.00 0.00 0.00 20 1013.7
20260902215904 97 244 11.0 21.0 0.00 0.00 0.00 20 1013.7
20260902215603 98 254 11.0 18.0 0.00 0.00 0.00 19 1013.7
20260902215306 98 221 11.0 18.0 0.00 0.00 0.00 20 1013.7
20260902214531 98 234 11.0 17.0 0.00 0.00 0.00 20 1013.8
20260902214233 98 209 11.0 17.0 0.00 0.00 0.00 21 1013.7
20260902213919 98 249 11.0 23.0 0.00 0.00 0.00 20 1013.8
20260902213605 98 238 11.0 23.0 0.00 0.00 0.00 21 1013.9
20260902212420 98 223 14.0 23.0 0.00 0.00 0.00 20 1014.1
20260902212119 98 224 14.0 23.0 0.00 0.00 0.00 20 1014.1
20260902211824 98 238 13.0 21.0 0.00 0.00 0.00 20 1014.1
20260902211526 97 248 12.0 21.0 0.00 0.00 0.00 20 1014.2
20260902211216 98 241 12.0 21.0 0.00 0.00 0.00 21 1014.2
20260902210910 98 233 13.0 21.0 0.00 0.00 0.00 20 1014.3
20260902210148 98 216 14.0 24.0 0.00 0.00 0.00 20 1014.3
20260902205841 98 213 14.0 24.0 0.00 0.00 0.00 20 1014.3
20260902205542 97 215 15.0 24.0 0.00 0.00 0.00 20 1014.3
20260902203921 98 230 14.0 26.0 0.00 0.00 0.00 21 1014.5
20260902203154 98 223 15.0 26.0 0.00 0.00 0.00 22 1014.7
20260902202854 97 215 14.0 26.0 0.00 0.00 0.00 21 1014.7
20260902202556 98 222 13.0 22.0 0.00 0.00 0.00 21 1014.8
20260902202245 97 240 13.0 22.0 0.00 0.00 0.00 21 1014.7
20260902201935 98 221 12.0 22.0 0.00 0.00 0.00 20 1014.8
20260902201639 97 248 13.0 22.0 0.00 0.00 0.00 21 1014.8
20260902201332 97 248 13.0 22.0 0.00 0.00 0.00 24 1014.8
20260902201034 97 227 14.0 22.0 0.00 0.00 0.00 22 1015.0
20260902200727 97 229 13.0 22.0 0.00 0.00 0.00 22 1015.0
20260902200419 97 240 12.0 21.0 0.00 0.00 0.00 21 1015.0
20260902200121 98 223 12.0 21.0 0.00 0.00 0.00 22 1015.1
20260902195814 97 220 13.0 21.0 0.00 0.00 0.00 22 1015.0
20260902195511 97 220 13.0 21.0 0.00 0.00 0.00 23 1015.1
20260902195158 97 232 14.0 21.0 0.00 0.00 0.00 22 1015.0
20260902194853 97 204 13.0 21.0 0.00 0.00 0.00 22 1015.1
20260902194125 97 235 12.0 23.0 0.00 0.00 0.00 25 1015.1
20260902193814 97 252 12.0 23.0 0.00 0.00 0.00 23 1015.3
20260902193510 97 244 11.0 23.0 0.00 0.00 0.00 23 1015.3
20260902193157 96 231 13.0 23.0 0.00 0.00 0.00 25 1015.3
20260902192437 96 225 12.0 23.0 0.00 0.00 0.00 25 1015.4
20260902191719 96 253 11.0 19.0 0.00 0.00 0.00 26 1015.5
20260902191406 96 257 11.0 19.0 0.00 0.00 0.00 27 1015.6
20260902191055 96 244 11.0 20.0 0.00 0.00 0.00 27 1015.6
20260902190758 95 246 11.0 20.0 0.00 0.00 0.00 27 1015.6
20260902190446 95 241 11.0 20.0 0.00 0.00 0.00 27 1015.7
20260902190145 95 256 11.0 20.0 0.00 0.00 0.00 28 1015.6
20260902185841 96 234 11.0 20.0 0.00 0.00 0.00 28 1015.6
20260902185539 95 257 11.0 20.0 0.00 0.00 0.00 27 1015.7
20260902185237 96 243 11.0 20.0 0.00 0.00 0.00 28 1015.6
20260902184935 96 256 11.0 20.0 0.00 0.00 0.00 28 1015.8
20260902184630 95 238 11.0 20.0 0.00 0.00 0.00 27 1015.8
20260902184327 95 248 11.0 20.0 0.00 0.00 0.00 28 1015.9
20260902184020 95 235 10.0 19.0 0.00 0.00 0.00 29 1015.9
20260902183709 95 265 10.0 19.0 0.00 0.00 0.00 28 1015.9
20260902183356 95 231 11.0 19.0 0.00 0.00 0.00 27 1015.9
20260902183048 94 240 11.0 19.0 0.00 0.00 0.00 30 1016.0
20260902181913 94 264 10.0 18.0 0.00 0.00 0.00 29 1016.1
20260902181607 94 250 10.0 18.0 0.00 0.00 0.00 30 1016.1
20260902180829 93 221 10.0 18.0 0.00 0.00 0.00 33 1016.1
20260902180059 92 259 11.0 18.0 0.00 0.00 0.00 32 1016.1
20260902175749 93 257 11.0 18.0 0.00 0.00 0.00 34 1016.2
20260902175440 93 240 11.0 18.0 0.00 0.00 0.00 32 1016.2
20260902175141 92 261 11.0 18.0 0.00 0.00 0.00 33 1016.2
20260902174829 92 238 11.0 18.0 0.00 0.00 0.00 33 1016.3
20260902174523 92 241 11.0 19.0 0.00 0.00 0.00 34 1016.3
20260902174215 92 250 10.0 19.0 0.00 0.00 0.00 34 1016.3
20260902173907 92 219 10.0 19.0 0.00 0.00 0.00 36 1016.4
20260902173602 92 221 10.0 19.0 0.00 0.00 0.00 35 1016.3
20260902173254 91 235 11.0 19.0 0.00 0.00 0.00 37 1016.4
20260902172949 91 248 10.0 19.0 0.00 0.00 0.00 37 1016.5
20260902172228 90 234 9.0 17.0 0.00 0.00 0.00 39 1016.4
20260902171921 89 271 10.0 17.0 0.00 0.00 0.00 39 1016.5
20260902171612 89 251 10.0 17.0 0.00 0.00 0.00 39 1016.6
20260902171307 89 249 9.0 15.0 0.00 0.00 0.00 40 1016.6
20260902171002 89 237 9.0 15.0 0.00 0.00 0.00 39 1016.5
20260902170651 89 259 8.0 14.0 0.00 0.00 0.00 41 1016.5
20260902170337 88 262 8.0 14.0 0.00 0.00 0.00 40 1016.6
20260902170035 88 261 8.0 14.0 0.00 0.00 0.00 41 1016.7
20260902165729 88 262 9.0 14.0 0.00 0.00 0.00 41 1016.7
20260902165417 87 264 9.0 15.0 0.00 0.00 0.00 43 1016.6
20260902165114 87 265 9.0 15.0 0.00 0.00 0.00 42 1016.6
20260902164814 87 261 9.0 15.0 0.00 0.00 0.00 44 1016.7
20260902164509 87 267 9.0 15.0 0.00 0.00 0.00 43 1016.7
20260902164210 87 263 10.0 15.0 0.00 0.00 0.00 45 1016.7
20260902163900 86 267 10.0 15.0 0.00 0.00 0.00 44 1016.7
20260902163553 86 272 10.0 15.0 0.00 0.00 0.00 44 1016.8
20260902163254 87 264 9.0 15.0 0.00 0.00 0.00 44 1016.8
20260902162949 86 258 9.0 15.0 0.00 0.00 0.00 44 1016.7
20260902162228 85 261 10.0 17.0 0.00 0.00 0.00 45 1016.7
20260902160155 85 246 10.0 14.0 0.00 0.00 0.00 47 1016.7
20260902155846 84 252 10.0 15.0 0.00 0.00 0.00 46 1016.7
20260902155548 84 256 10.0 15.0 0.00 0.00 0.00 48 1016.7
20260902155237 84 267 10.0 15.0 0.00 0.00 0.00 48 1016.7
20260902154924 84 258 10.0 15.0 0.00 0.00 0.00 47 1016.8
20260902154156 83 267 10.0 15.0 0.00 0.00 0.00 48 1016.7
20260902153854 83 255 9.0 15.0 0.00 0.00 0.00 48 1016.7
20260902153122 82 257 9.0 14.0 0.00 0.00 0.00 50 1016.5
20260902152825 82 251 9.0 14.0 0.00 0.00 0.00 50 1016.5
20260902152529 82 248 9.0 14.0 0.00 0.00 0.00 51 1016.5